Content
SEND FEEDBACK

Daily
Averages
Monthly
Summary
Algeria

SIDI AMRANE, ALGERIA


Home > Africa > Algeria
Elevation: 207 feet     Latitude: 33 18N     Longitude: 006 54E

WEATHER
 
SELECT A DAY
Number of Records: 119,018;   Date Range: 2/24/01 - 7/23/14
 
SHARE

PRINT THIS DATA

[ ← Previous Day ]
WEATHER ALMANAC - JANUARY 31, 2013
[ Next Day → ]
[ °C ]   °F
Weather ElementAverageHighLow
Temperature54.5 °F70 °F (4:00 pm)40 °F (7:00 am)
Dewpoint35.6 °F41 °F (11:00 am)30.2 °F (5:00 am)
Humidity48.5 %71 % (1:00 am)19 % (4:00 pm)
Barometer30.34 in30.39 in (11:00 am)30.30 in (4:00 am)
Wind Speed0.2 mph2.3 mph (1:00 pm)
Weather ElementAverage
Visibility6 mi
Wind DirectionNNE (26.1 °)

Weather ElementTotal
Precipitation---
Heating Degree Days10 (Base 65)
Growing Degree Days5 (Base 50)
Averaged from 30 records on January 31, 2013
WEATHER CONDITIONS BREAKOUT
WIND DIRECTION BREAKOUT
WEATHER BY HOUR - JANUARY 31, 2013
[ °C ]   °F
Local TimeTemperatureDewpointHumidityBarometerVisibilityWind DirectionWind SpeedGust SpeedPrecipitationEventsConditions
1:00 AM46.0 °F37.0 °F60 %30.35 in6.0 miCalm
1:00 AM46.4 °F37.4 °F71 %30.33 inCalmClear
2:00 AM44.6 °F35.6 °F71 %30.33 inCalmClear
3:00 AM44.6 °F33.8 °F66 %30.33 inCalmClear
4:00 AM45.0 °F33.0 °F51 %30.32 in6.0 miCalmClear
4:00 AM44.6 °F33.8 °F66 %30.30 inCalmClear
5:00 AM44.6 °F30.2 °F57 %30.30 inCalmClear
7:00 AM41.0 °F32.0 °F70 %30.33 inCalmClear
7:00 AM40.0 °F31.0 °F62 %30.35 in6.0 miCalmScattered Clouds
8:00 AM41.0 °F32.0 °F70 %30.36 inCalmClear
9:00 AM46.4 °F32.0 °F57 %30.36 inCalmClear
10:00 AM52.0 °F34.0 °F38 %30.38 in6.0 miCalmClear
10:00 AM51.8 °F33.8 °F50 %30.36 inCalmClear
11:00 AM59.0 °F41.0 °F51 %30.39 inCalmClear
12:00 PM64.4 °F35.6 °F34 %30.39 inCalmClear
1:00 PM66.2 °F35.6 °F32 %30.36 inWNW (300°)2.3 mphClear
1:00 PM66.0 °F36.0 °F22 %30.37 in6.0 miWNW (300°)2.3 mph
2:00 PM68.0 °F37.4 °F33 %30.33 inCalmClear
3:00 PM69.8 °F37.4 °F31 %30.30 inCalmClear
4:00 PM70.0 °F37.0 °F19 %30.31 in6.0 miCalm
4:00 PM69.8 °F37.4 °F31 %30.30 inCalmClear
5:00 PM69.8 °F37.4 °F31 %30.30 inCalmClear
6:00 PM66.2 °F41.0 °F40 %30.30 inCalmClear
7:00 PM60.8 °F35.6 °F39 %30.33 inCalmClear
7:00 PM60.0 °F36.0 °F29 %30.34 in6.0 miCalmClear
8:00 PM55.4 °F37.4 °F51 %30.33 inCalmClear
9:00 PM51.8 °F37.4 °F58 %30.36 inCalmClear
10:00 PM51.0 °F36.0 °F45 %30.36 in6.0 miCalm
10:00 PM51.8 °F35.6 °F54 %30.36 inCalmClear
11:00 PM48.2 °F37.4 °F66 %30.36 inCalmClear
Hourly data recorded from DAUO, located miles away from Sidi Amrane, Algeria







STORIES FROM OUR PARTNERS